This is the latest recevied weather packets stored in our database for station/object KC5AV. If no packets are shown the sender has not sent any weather packets the latest 10 day(s).
| Time | Temp. | Humidity | Pressure | Rain* | Wind** | Luminosity | Snow |
|---|---|---|---|---|---|---|---|
| 1777937914 | 26.11° C | 45% | 1010 hPa | 0 mm | - | 102 W/m² | - |
| 1777937610 | 26.67° C | 45% | 1010 hPa | 0 mm | - | 112 W/m² | - |
| 1777937307 | 26.67° C | 45% | 1010 hPa | 0 mm | - | 134 W/m² | - |
| 1777937004 | 26.67° C | 43% | 1010.3 hPa | 0 mm | - | 123 W/m² | - |
| 1777936701 | 27.22° C | 43% | 1010.4 hPa | 0 mm | - | 157 W/m² | - |
| 1777936397 | 27.22° C | 43% | 1010.6 hPa | 0 mm | - | 184 W/m² | - |
| 1777936093 | 27.22° C | 43% | 1010.5 hPa | 0 mm | - | 201 W/m² | - |
| 1777935792 | 26.67° C | 43% | 1010.5 hPa | 0 mm | - | 214 W/m² | - |
| 1777935490 | 26.67° C | 43% | 1010.6 hPa | 0 mm | - | 197 W/m² | - |
| 1777935186 | 27.22° C | 42% | 1010.5 hPa | 0 mm | - | 287 W/m² | - |
| 1777934883 | 27.22° C | 42% | 1010.6 hPa | 0 mm | - | 286 W/m² | - |
| 1777934581 | 27.22° C | 43% | 1010.8 hPa | 0 mm | - | 247 W/m² | - |
| 1777934277 | 27.22° C | 44% | 1010.9 hPa | 0 mm | - | 287 W/m² | - |
| 1777933972 | 27.22° C | 43% | 1010.8 hPa | 0 mm | - | 313 W/m² | - |
| 1777933669 | 26.67° C | 44% | 1010.6 hPa | 0 mm | - | 292 W/m² | - |
| 1777933366 | 27.22° C | 43% | 1010.8 hPa | 0 mm | - | 306 W/m² | - |
| 1777933064 | 27.22° C | 44% | 1010.8 hPa | 0 mm | - | 316 W/m² | - |
| 1777932761 | 27.78° C | 43% | 1011 hPa | 0 mm | - | 334 W/m² | - |
| 1777932458 | 27.78° C | 44% | 1011.2 hPa | 0 mm | - | 393 W/m² | - |
| 1777932155 | 27.22° C | 45% | 1011.1 hPa | 0 mm | - | 438 W/m² | - |
| 1777931852 | 27.22° C | 45% | 1011 hPa | 0 mm | - | 399 W/m² | - |
| 1777931548 | 27.78° C | 45% | 1011.1 hPa | 0 mm | - | 474 W/m² | - |
| 1777931245 | 27.22° C | 46% | 1011.2 hPa | 0 mm | - | 508 W/m² | - |
| 1777930941 | 27.22° C | 43% | 1011.2 hPa | 0 mm | - | 499 W/m² | - |
| 1777930638 | 27.22° C | 45% | 1011.5 hPa | 0 mm | - | 499 W/m² | - |
* Rain latest hour (hover to see other rain measurements)
** Current wind speed in m/s (hover to see current wind gust speed)